TimeEST,TemperatureF,Dew PointF,Humidity,Sea Level PressureIn,VisibilityMPH,Wind Direction,Wind SpeedMPH,Gust SpeedMPH,PrecipitationIn,Events,Conditions,WindDirDegrees,DateUTC
12:13 AM,17.4,14.7,89,30.35,10.0,Calm,Calm,-,N/A,,Clear,0,2013-01-15 05:13:00
12:32 AM,17.6,14.5,88,30.36,10.0,Calm,Calm,-,N/A,,Clear,0,2013-01-15 05:32:00
12:53 AM,17.6,14.5,88,30.36,10.0,Calm,Calm,-,N/A,,Clear,0,2013-01-15 05:53:00
1:13 AM,17.6,14.4,87,30.36,10.0,Calm,Calm,-,N/A,,Clear,0,2013-01-15 06:13:00
1:32 AM,17.2,14.0,87,30.36,10.0,Calm,Calm,-,N/A,,Clear,0,2013-01-15 06:32:00
1:53 AM,17.1,14.4,89,30.37,10.0,Calm,Calm,-,N/A,,Clear,0,2013-01-15 06:53:00
2:13 AM,17.2,14.4,88,30.37,10.0,Calm,Calm,-,N/A,,Clear,0,2013-01-15 07:13:00
2:33 AM,16.7,14.2,90,30.37,10.0,Calm,Calm,-,N/A,,Clear,0,2013-01-15 07:33:00
3:13 AM,16.3,14.0,90,30.37,10.0,Calm,Calm,-,N/A,,Clear,0,2013-01-15 08:13:00
3:32 AM,15.8,13.6,91,30.37,10.0,Calm,Calm,-,N/A,,Clear,0,2013-01-15 08:32:00
3:53 AM,15.8,14.0,93,30.37,10.0,Calm,Calm,-,N/A,,Clear,0,2013-01-15 08:53:00
4:53 AM,14.9,12.9,92,30.36,10.0,Calm,Calm,-,N/A,,Clear,0,2013-01-15 09:53:00
5:12 AM,14.9,12.9,92,30.37,10.0,Calm,Calm,-,N/A,,Clear,0,2013-01-15 10:12:00
6:12 AM,15.3,13.5,93,30.37,7.0,Calm,Calm,-,N/A,,Clear,0,2013-01-15 11:12:00
6:33 AM,15.3,13.5,93,30.37,7.0,Calm,Calm,-,N/A,,Clear,0,2013-01-15 11:33:00
6:53 AM,14.4,12.2,91,30.37,10.0,Calm,Calm,-,N/A,,Clear,0,2013-01-15 11:53:00
7:12 AM,15.3,13.3,92,30.37,10.0,Calm,Calm,-,N/A,,Clear,0,2013-01-15 12:12:00
7:33 AM,14.5,12.7,93,30.38,7.0,Calm,Calm,-,N/A,,Clear,0,2013-01-15 12:33:00
7:53 AM,14.2,12.4,93,30.39,7.0,Calm,Calm,-,N/A,,Clear,0,2013-01-15 12:53:00
8:12 AM,14.4,12.4,92,30.40,7.0,Calm,Calm,-,N/A,,Clear,0,2013-01-15 13:12:00
8:33 AM,14.7,12.9,93,30.39,7.0,Calm,Calm,-,N/A,,Clear,0,2013-01-15 13:33:00
8:53 AM,16.0,13.6,90,30.39,7.0,Calm,Calm,-,N/A,,Clear,0,2013-01-15 13:53:00
9:12 AM,16.9,14.5,91,30.40,7.0,Calm,Calm,-,N/A,,Clear,0,2013-01-15 14:12:00
9:33 AM,18.7,16.2,90,30.40,10.0,South,3.5,-,N/A,,Clear,190,2013-01-15 14:33:00
9:53 AM,21.2,17.6,86,30.41,10.0,SSW,4.6,-,N/A,,Clear,200,2013-01-15 14:53:00
10:12 AM,22.1,18.1,85,30.40,10.0,Calm,Calm,-,N/A,,Clear,0,2013-01-15 15:12:00
10:33 AM,23.9,17.6,77,30.40,10.0,Calm,Calm,-,N/A,,Clear,0,2013-01-15 15:33:00
10:53 AM,23.7,15.6,71,30.39,10.0,Calm,Calm,-,N/A,,Clear,0,2013-01-15 15:53:00
11:12 AM,24.1,16.5,73,30.38,10.0,Calm,Calm,-,N/A,,Clear,0,2013-01-15 16:12:00
11:33 AM,24.4,16.2,71,30.38,10.0,Calm,Calm,-,N/A,,Clear,0,2013-01-15 16:33:00
11:53 AM,25.2,15.8,68,30.38,10.0,Calm,Calm,-,N/A,,Clear,0,2013-01-15 16:53:00
12:12 PM,25.9,16.7,68,30.37,10.0,SW,4.6,-,N/A,,Clear,220,2013-01-15 17:12:00
12:33 PM,26.8,17.1,67,30.36,10.0,West,3.5,-,N/A,,Clear,270,2013-01-15 17:33:00
12:53 PM,26.8,17.4,68,30.34,10.0,WNW,3.5,-,N/A,,Clear,300,2013-01-15 17:53:00
1:12 PM,27.5,17.4,66,30.32,10.0,South,3.5,-,N/A,,Clear,190,2013-01-15 18:12:00
1:33 PM,27.5,17.2,65,30.31,10.0,SSW,4.6,-,N/A,,Clear,210,2013-01-15 18:33:00
1:52 PM,27.7,17.1,64,30.31,10.0,SW,4.6,-,N/A,,Clear,230,2013-01-15 18:52:00
2:13 PM,27.7,16.5,63,30.32,10.0,WSW,4.6,-,N/A,,Clear,250,2013-01-15 19:13:00
2:33 PM,28.4,16.7,62,30.32,10.0,Calm,Calm,-,N/A,,Clear,0,2013-01-15 19:33:00
2:52 PM,29.3,18.3,64,30.31,10.0,Calm,Calm,-,N/A,,Clear,0,2013-01-15 19:52:00
3:13 PM,28.6,16.9,62,30.29,10.0,Calm,Calm,-,N/A,,Clear,0,2013-01-15 20:13:00
3:33 PM,28.4,16.0,60,30.29,10.0,Calm,Calm,-,N/A,,Clear,0,2013-01-15 20:33:00
3:52 PM,28.9,16.9,61,30.28,10.0,Calm,Calm,-,N/A,,Clear,0,2013-01-15 20:52:00
4:13 PM,28.4,17.1,63,30.28,10.0,Calm,Calm,-,N/A,,Clear,0,2013-01-15 21:13:00
4:33 PM,28.4,17.2,63,30.27,10.0,Calm,Calm,-,N/A,,Clear,0,2013-01-15 21:33:00
4:52 PM,28.4,18.1,65,30.27,10.0,Calm,Calm,-,N/A,,Clear,0,2013-01-15 21:52:00
5:13 PM,28.0,18.1,66,30.26,10.0,Calm,Calm,-,N/A,,Clear,0,2013-01-15 22:13:00
5:33 PM,27.9,18.0,66,30.26,10.0,Calm,Calm,-,N/A,,Clear,0,2013-01-15 22:33:00
5:52 PM,27.5,19.4,72,30.25,10.0,Calm,Calm,-,N/A,,Clear,0,2013-01-15 22:52:00
6:32 PM,26.6,19.2,74,30.27,10.0,Calm,Calm,-,N/A,,Clear,0,2013-01-15 23:32:00
6:53 PM,26.4,19.4,75,30.27,10.0,Calm,Calm,-,N/A,,Clear,0,2013-01-15 23:53:00
7:13 PM,26.4,19.6,75,30.25,10.0,Calm,Calm,-,N/A,,Clear,0,2013-01-16 00:13:00
7:33 PM,25.2,19.4,79,30.25,10.0,Calm,Calm,-,N/A,,Clear,0,2013-01-16 00:33:00
7:53 PM,24.8,20.5,84,30.25,10.0,Calm,Calm,-,N/A,,Clear,0,2013-01-16 00:53:00
8:13 PM,24.6,20.3,84,30.23,10.0,Calm,Calm,-,N/A,,Clear,0,2013-01-16 01:13:00
8:32 PM,23.9,21.9,92,30.23,10.0,Calm,Calm,-,N/A,,Clear,0,2013-01-16 01:32:00
8:53 PM,23.5,21.0,90,30.21,10.0,Calm,Calm,-,N/A,,Clear,0,2013-01-16 01:53:00
9:13 PM,23.2,21.2,92,30.20,10.0,Calm,Calm,-,N/A,,Clear,0,2013-01-16 02:13:00
9:32 PM,23.5,21.4,91,30.19,10.0,Calm,Calm,-,N/A,,Clear,0,2013-01-16 02:32:00
9:53 PM,23.0,20.5,90,30.19,10.0,Calm,Calm,-,N/A,,Clear,0,2013-01-16 02:53:00
10:13 PM,22.5,20.7,93,30.18,10.0,Calm,Calm,-,N/A,,Clear,0,2013-01-16 03:13:00
10:32 PM,21.9,20.1,93,30.17,10.0,Calm,Calm,-,N/A,,Clear,0,2013-01-16 03:32:00
10:53 PM,21.0,19.8,95,30.17,7.0,Calm,Calm,-,N/A,,Clear,0,2013-01-16 03:53:00
11:13 PM,21.0,19.6,94,30.15,10.0,Calm,Calm,-,N/A,,Clear,0,2013-01-16 04:13:00
11:32 PM,21.0,19.4,93,30.15,10.0,Calm,Calm,-,N/A,,Clear,0,2013-01-16 04:32:00
11:53 PM,21.0,19.4,93,30.14,7.0,Calm,Calm,-,N/A,,Clear,0,2013-01-16 04:53:00